Theta_e
329 331 333 333 333 333 331 329 328 328 328 327 327 329 342 340 337 333 331 329 326 329 330 326 324 322 315
328 325 327 329 330 330 328 327 326 325 324 323 322 324 339 335 331 328 325 324 323 328 326 324 322 320 314
320 326 325 325 326 326 325 323 323 323 321 321 321 321 319 327 327 324 322 321 324 325 322 320 318 315 315
313 325 324 324 324 323 324 323 323 321 320 317 317 318 316 314 317 318 317 315 313 312 315 316 313 314 314
310 316 322 321 323 322 322 321 320 319 315 313 311 311 310 308 307 306 304 304 307 310 311 310 311 312 312
310 313 323 319 318 317 321 320 318 315 312 309 308 308 307 307 305 304 305 306 307 309 309 309 309 308 309
308 314 322 319 318 317 320 319 316 312 309 309 308 307 306 306 305 305 306 305 306 307 308 308 307 307 307
308 314 319 323 321 320 319 316 312 311 309 308 306 306 306 306 306 306 305 304 303 304 303 304 303 303 303
307 313 320 322 321 320 318 315 311 309 307 305 306 306 306 306 306 306 304 303 302 301 300 299 299 298 298
305 310 320 321 321 320 318 314 312 309 307 305 305 304 306 306 306 305 303 301 300 299 297 296 295 296 295
303 310 317 316 317 319 317 315 313 309 307 306 305 305 306 306 306 305 303 301 298 297 296 295 295 293 293
302 308 315 314 313 313 314 315 313 312 309 306 305 304 304 304 304 304 302 301 299 297 296 295 294 294 291
299 303 307 310 309 309 309 311 311 312 309 307 305 304 304 303 302 303 301 299 297 297 296 295 294 294 292
297 301 305 309 308 308 308 308 308 309 309 306 305 304 303 302 302 302 300 299 299 299 296 295 291 292 293
294 298 302 305 306 304 304 305 306 306 306 306 305 303 302 302 301 301 301 300 297 299 300 298 293 291 290
292 294 295 296 296 299 302 303 303 304 304 304 303 302 301 300 299 300 302 301 300 298 299 301 299 297 292
Wind_Speed
15 13 10 12 14 13 15 10 11 14 17 21 20 29 18 19 18 16 11 11 12 14 16 17 14 12 6
6 10 10 8 5 6 8 9 10 9 12 14 20 34 25 22 18 16 12 11 12 16 16 15 13 11 6
11 3 6 6 7 6 5 1 4 4 9 5 20 27 32 16 15 13 14 13 13 14 15 14 10 4 5
9 8 5 4 3 1 2 3 3 2 5 6 10 24 20 26 13 9 11 12 9 4 5 9 4 5 4
9 8 3 2 3 3 4 3 4 3 4 5 4 4 8 13 8 6 4 4 5 5 5 5 5 5 3
8 6 4 3 3 3 2 4 3 3 3 3 4 7 5 7 3 4 3 4 6 6 7 7 6 4 3
11 8 6 3 3 3 2 3 4 3 2 4 6 4 4 4 3 3 4 3 5 6 6 7 6 5 6
10 11 8 2 2 2 2 2 5 4 2 4 6 5 3 6 3 4 4 3 5 5 7 7 6 5 6
12 10 9 3 3 1 1 3 5 5 3 4 4 6 4 4 5 5 4 3 5 6 7 6 5 6 6
12 9 7 7 2 3 2 2 3 5 6 4 2 2 5 5 6 4 5 5 4 5 5 5 4 5 6
13 9 6 7 6 2 2 2 3 3 6 5 3 2 2 3 4 4 1 4 6 4 6 5 4 4 5
9 9 5 4 5 6 4 2 1 2 4 5 4 5 3 4 4 3 3 3 4 6 7 5 4 3 4
10 9 5 5 6 5 5 6 3 1 1 4 4 4 4 5 3 6 3 6 4 5 4 3 3 4 3
9 9 4 5 2 3 5 6 5 3 0 0 3 4 4 4 5 5 5 3 2 2 2 2 2 2 2
14 9 8 6 3 5 6 6 5 5 4 3 1 2 3 2 3 3 4 4 2 2 2 0 3 2 2
14 11 13 8 7 7 5 5 6 7 5 4 1 2 2 1 2 2 4 2 4 3 0 2 3 3 2
Wind_Direction
9 21 59 98 111 111 106 80 34 23 16 15 349 344 166 143 128 121 116 125 119 128 126 115 108 105 99
9 8 7 8 43 112 120 131 143 121 96 50 24 27 141 124 122 120 121 128 119 123 114 104 98 95 96
326 320 314 327 341 39 60 106 126 150 105 110 67 39 12 58 101 123 133 115 118 113 107 99 91 81 78
336 324 314 324 309 326 285 272 52 351 71 70 74 103 61 5 1 100 112 102 96 88 88 84 77 76 66
332 321 313 329 315 337 2 24 58 30 43 63 65 24 95 69 341 346 27 50 82 93 82 76 73 64 54
328 317 309 318 329 349 17 65 55 69 52 83 101 82 72 92 294 340 29 49 63 72 85 82 72 67 54
332 322 306 293 314 341 5 68 76 74 96 97 81 78 106 90 75 58 31 36 73 74 69 80 71 60 52
329 326 308 268 281 340 1 46 89 74 104 106 107 108 104 105 100 77 62 27 67 80 72 67 62 53 52
331 328 320 239 179 179 360 79 94 95 98 102 123 123 111 111 120 109 103 73 77 73 69 61 66 59 58
334 325 331 338 212 151 131 126 147 132 127 98 94 117 133 137 133 124 123 96 71 78 82 57 49 59 60
337 335 337 359 6 3 132 158 182 149 127 127 128 119 120 111 109 121 77 119 121 94 87 63 51 42 50
342 337 336 14 14 13 13 354 84 242 158 137 145 155 156 139 122 106 108 59 106 115 97 73 60 45 49
353 348 341 2 355 13 15 8 6 190 210 165 165 172 155 144 152 141 120 122 102 130 116 80 52 65 42
354 339 321 327 359 2 11 1 7 24 60 100 161 166 169 151 171 139 143 120 111 170 123 132 132 74 34
2 356 353 351 358 1 8 9 359 11 2 70 322 156 141 135 179 137 142 135 130 207 34 262 147 148 123
10 14 15 4 3 354 353 360 9 5 359 4 298 59 94 81 151 140 142 152 122 187 145 263 58 64 113